Flag for Uzbekistan Weather past 2 weeks in Tashkent, Uzbekistan

Now
84 °F

Mostly cloudy.


Feels Like: 81 °F
Forecast: 54 / 75 °F
Wind: 9 mph from Southwest

Location: Tashkent

Current Time: Apr 25, 2015 at 11:37:12 PM

Latest Report: Apr 25, 2015 at 11:00 PM


Visibility: N/A

Pressure: 29.65 "Hg

Humidity: 19%

Dew point: 37 °F

Location of TashkentLocation

Historic Weather in Tashkent — Graph

°F

Tashkent temperature yesterday

Maximum temperature yesterday: 86 °F (at 3:30 PM)
Minimum temperature yesterday: 66 °F (at 12:00 AM)
Average temperature yesterday: 75 °F

Past Weeks' High & Low Weather Summary

 TemperatureHumidityPressure
High95 °F (Apr 25, 2:00 PM)100% (Apr 18, 6:30 AM)30.27 "Hg (Apr 18, 6:30 AM)
Low48 °F (Apr 16, 4:00 AM)10% (Apr 11, 11:00 AM)29.62 "Hg (Apr 25, 5:30 PM)
Average69 °F42%29.97 "Hg
* Reported Apr 10 10:00 PM — Apr 25 10:00 PM, Tashkent, Weather by CustomWeather, © 2015

Note: Actual official high and low records may vary slightly from our data, if they occured in-between our weather recording intervals... More about our weather records

Advertising

Tashkent weather history for previous 24 hours

 ConditionsComfort  
Time TempWeatherWind HumidityBarometerVisibility
10:00 PM
Sat, Apr 25
84 °FSprinkles. Mostly cloudy.10 mph16%29.62 "HgN/A
9:30 PM81 °FMostly cloudy.5 mph24%29.62 "HgN/A
9:00 PM86 °FMostly cloudy.8 mph18%29.62 "HgN/A
8:30 PM90 °FMostly cloudy.8 mph12%29.62 "HgN/A
8:00 PM88 °FMostly cloudy.7 mph15%29.65 "HgN/A
7:30 PM86 °FMostly cloudy.5 mph18%29.65 "HgN/A
7:00 PM88 °FMore clouds than sun.5 mph17%29.62 "Hg4 mi
6:30 PM88 °FOvercast.5 mph19%29.62 "Hg4 mi
6:00 PM90 °FSunny.5 mph15%29.62 "Hg10 mi
5:30 PM90 °FSunny.6 mph18%29.62 "Hg10 mi
5:00 PM91 °FPassing clouds.6 mph17%29.65 "HgN/A
4:30 PM91 °FSunny.7 mph16%29.65 "Hg10 mi
4:00 PM93 °FPassing clouds.9 mph16%29.65 "HgN/A
3:30 PM95 °FPassing clouds.12 mph13%29.68 "HgN/A
3:00 PM93 °FSunny.13 mph14%29.68 "Hg10 mi
2:30 PM95 °FSunny.10 mph13%29.68 "Hg10 mi
2:00 PM95 °FSunny.12 mph13%29.71 "Hg10 mi
1:30 PM93 °FPassing clouds.12 mph12%29.71 "HgN/A
1:00 PM93 °FSunny.14 mph14%29.71 "Hg10 mi
12:30 PM93 °FPassing clouds.8 mph16%29.74 "HgN/A
12:00 PM91 °FPassing clouds.8 mph18%29.74 "HgN/A
11:30 AM91 °FPassing clouds.8 mph18%29.77 "HgN/A
11:00 AM90 °FPassing clouds.6 mph18%29.77 "HgN/A
10:30 AM88 °FPassing clouds.7 mph21%29.80 "HgN/A
10:00 AM86 °FSunny.8 mph22%29.80 "Hg10 mi
9:30 AM84 °FSunny.9 mph25%29.83 "Hg10 mi
9:00 AM82 °FSunny.9 mph25%29.83 "Hg10 mi
8:30 AM79 °FSunny.10 mph28%29.83 "Hg10 mi
8:00 AM77 °FSunny.9 mph30%29.83 "Hg10 mi
7:30 AM73 °FSunny.13 mph36%29.83 "Hg10 mi
7:00 AM72 °FSunny.9 mph38%29.83 "Hg10 mi
6:30 AM68 °FSunny.8 mph43%29.83 "Hg10 mi
6:00 AM68 °FPassing clouds.7 mph40%29.86 "HgN/A
5:30 AM68 °FSunny.7 mph40%29.86 "Hg10 mi
5:00 AM64 °FClear.2 mph52%29.86 "Hg10 mi
4:30 AM66 °FClear.2 mph46%29.86 "Hg10 mi
4:00 AM68 °FClear.6 mph43%29.89 "Hg10 mi
3:30 AM70 °FPassing clouds.6 mph43%29.89 "HgN/A
3:00 AM68 °FClear.5 mph49%29.89 "Hg10 mi
2:30 AM68 °FClear.6 mph53%29.89 "Hg10 mi
2:00 AM66 °FClear.3 mph60%29.92 "Hg10 mi
1:30 AM64 °FClear.10 mph68%29.92 "Hg10 mi
1:00 AM66 °FClear.6 mph64%29.95 "Hg10 mi
12:30 AM66 °FClear.7 mph68%29.95 "Hg10 mi
12:00 AM66 °FClear.8 mph68%29.98 "Hg10 mi
11:30 PM
Fri, Apr 24
68 °FClear.7 mph56%29.98 "Hg10 mi
11:00 PM70 °FClear.5 mph53%29.98 "Hg10 mi
Weather by CustomWeather, © 2015

See weather overviewHow to use our weather pages